SWR2341 LEIB-LSGG

Flight info

Callsign SWR2341
Flight time 1h 25m
Altitude 34000
Route KABRE DCT ELTAN DCT MHN DCT MEROS DCT LAPIT DCT CHELY DCT LUMAS DCT NEVIX DCT ODIXU DCT MAXIR DCT LUSOL DCT BODRU/N0421F280 DCT OKTET DCT IRMAR DCT KINES
Aircraft A321/M-SDE3FGHIRWY/LB1

Departure

Time 2026-05-05 23:55
Airport Ibiza Airport (LEIB)

Arrival

Time 2026-05-06 01:20
Airport Geneva International Airport (LSGG)
Time Latitude Longitude Altitude Speed Heading
2026-05-05 23:31 38.87503 1.36795 9 ft 0 kts 16°
2026-05-05 23:44 38.87493 1.36791 8 ft 4 kts 14°
2026-05-05 23:44 38.87467 1.36784 9 ft 4 kts
2026-05-05 23:44 38.87449 1.36782 10 ft 4 kts
2026-05-05 23:45 38.87424 1.36783 11 ft 1 kts 355°
2026-05-05 23:47 38.87434 1.36793 10 ft 2 kts 46°
2026-05-05 23:47 38.87445 1.36819 8 ft 4 kts 62°
2026-05-05 23:48 38.87459 1.36854 10 ft 5 kts 62°
2026-05-05 23:48 38.87479 1.36900 9 ft 7 kts 61°
2026-05-05 23:48 38.87503 1.36958 8 ft 8 kts 62°
2026-05-05 23:48 38.87533 1.37029 8 ft 10 kts 63°
2026-05-05 23:49 38.87567 1.37113 8 ft 11 kts 62°
2026-05-05 23:49 38.87607 1.37210 8 ft 13 kts 62°
2026-05-05 23:49 38.87652 1.37321 10 ft 15 kts 62°
2026-05-05 23:49 38.87695 1.37423 9 ft 11 kts 62°
2026-05-05 23:50 38.87667 1.37498 8 ft 11 kts 151°
2026-05-05 23:50 38.87602 1.37542 9 ft 8 kts 153°
2026-05-05 23:50 38.87585 1.37583 9 ft 6 kts 86°
2026-05-05 23:50 38.87602 1.37632 9 ft 7 kts 62°
2026-05-05 23:51 38.87627 1.37691 9 ft 8 kts 61°
2026-05-05 23:51 38.87656 1.37761 9 ft 10 kts 61°
2026-05-05 23:51 38.87691 1.37844 9 ft 11 kts 62°
2026-05-05 23:51 38.87731 1.37940 9 ft 13 kts 62°
2026-05-05 23:52 38.87777 1.38050 9 ft 15 kts 62°
2026-05-05 23:52 38.87827 1.38173 9 ft 16 kts 62°
2026-05-05 23:52 38.87881 1.38301 11 ft 17 kts 62°
2026-05-05 23:52 38.87935 1.38432 11 ft 16 kts 62°
2026-05-05 23:53 38.87988 1.38557 9 ft 15 kts 62°
2026-05-05 23:53 38.87999 1.38622 9 ft 6 kts 114°
2026-05-05 23:53 38.87975 1.38647 9 ft 3 kts 145°
2026-05-05 23:53 38.87955 1.38663 10 ft 4 kts 150°
2026-05-05 23:54 38.87917 1.38687 11 ft 9 kts 155°
2026-05-05 23:54 38.87862 1.38694 11 ft 10 kts 208°
2026-05-05 23:54 38.87842 1.38658 13 ft 1 kts 243°
2026-05-05 23:54 38.87789 1.38529 13 ft 47 kts 242°
2026-05-05 23:55 38.87527 1.37892 12 ft 112 kts 242°
2026-05-05 23:55 38.87073 1.36793 12 ft 163 kts 243°
2026-05-05 23:55 38.86497 1.35444 418 ft 171 kts 237°
2026-05-05 23:55 38.85761 1.34272 1138 ft 168 kts 227°
2026-05-05 23:56 38.84922 1.33139 1498 ft 184 kts 229°
2026-05-05 23:56 38.84001 1.31871 1743 ft 203 kts 229°
2026-05-05 23:56 38.83022 1.30518 2176 ft 209 kts 229°
2026-05-05 23:56 38.82024 1.29126 2696 ft 215 kts 229°
2026-05-05 23:57 38.80916 1.27831 3382 ft 218 kts 211°
2026-05-05 23:57 38.79447 1.27273 3892 ft 232 kts 181°
2026-05-05 23:57 38.77771 1.27570 4167 ft 256 kts 169°
2026-05-05 23:57 38.75969 1.28007 4686 ft 268 kts 169°
2026-05-05 23:58 38.74116 1.28452 5394 ft 273 kts 170°
2026-05-05 23:58 38.72232 1.28897 6138 ft 278 kts 171°
2026-05-05 23:58 38.70311 1.29346 6842 ft 282 kts 171°
2026-05-05 23:58 38.68377 1.29794 7630 ft 283 kts 172°
2026-05-05 23:59 38.66437 1.30240 8378 ft 284 kts 172°
2026-05-05 23:59 38.64489 1.30689 9154 ft 285 kts 173°
2026-05-05 23:59 38.62526 1.31142 9889 ft 288 kts 173°
2026-05-05 23:59 38.60612 1.31969 10542 ft 296 kts 153°
2026-05-06 00:00 38.59021 1.33691 11175 ft 309 kts 132°
2026-05-06 00:00 38.57994 1.36220 11346 ft 338 kts 106°
2026-05-06 00:00 38.57712 1.39300 11479 ft 362 kts 88°
2026-05-06 00:00 38.58272 1.42512 11706 ft 380 kts 66°
2026-05-06 00:01 38.59766 1.45312 12174 ft 386 kts 42°
2026-05-06 00:01 38.61856 1.47493 12718 ft 390 kts 35°
2026-05-06 00:01 38.64030 1.49608 13311 ft 395 kts 34°
2026-05-06 00:01 38.66245 1.51734 13851 ft 402 kts 34°
2026-05-06 00:02 38.68498 1.53884 14398 ft 406 kts 34°
2026-05-06 00:02 38.70771 1.56059 14944 ft 410 kts 34°
2026-05-06 00:02 38.73059 1.58263 15494 ft 413 kts 34°
2026-05-06 00:02 38.75360 1.60493 16035 ft 417 kts 34°
2026-05-06 00:03 38.77682 1.62751 16568 ft 420 kts 34°
2026-05-06 00:03 38.80024 1.65028 17107 ft 424 kts 34°
2026-05-06 00:03 38.82381 1.67322 17633 ft 427 kts 34°
2026-05-06 00:03 38.84752 1.69635 18151 ft 431 kts 34°
2026-05-06 00:04 38.87145 1.71972 18606 ft 434 kts 34°
2026-05-06 00:04 38.89554 1.74323 19048 ft 437 kts 34°
2026-05-06 00:04 38.91984 1.76692 19479 ft 440 kts 34°
2026-05-06 00:04 38.94425 1.79076 19912 ft 442 kts 34°
2026-05-06 00:05 38.99352 1.83900 20792 ft 448 kts 34°
2026-05-06 00:05 39.01835 1.86332 21230 ft 450 kts 34°
2026-05-06 00:05 39.04337 1.88781 21662 ft 453 kts 34°
2026-05-06 00:06 39.06854 1.91242 22077 ft 456 kts 34°
2026-05-06 00:06 39.09387 1.93725 22475 ft 459 kts 34°
2026-05-06 00:06 39.11931 1.96228 22885 ft 463 kts 34°
2026-05-06 00:06 39.14498 1.98761 23252 ft 467 kts 34°
2026-05-06 00:07 39.17082 2.01313 23632 ft 469 kts 34°
2026-05-06 00:07 39.19683 2.03881 23972 ft 472 kts 34°
2026-05-06 00:07 39.22297 2.06460 24301 ft 475 kts 34°
2026-05-06 00:07 39.24925 2.09056 24630 ft 477 kts 34°
2026-05-06 00:08 39.27569 2.11669 24953 ft 480 kts 34°
2026-05-06 00:08 39.30225 2.14297 25274 ft 482 kts 34°
2026-05-06 00:08 39.32891 2.16942 25589 ft 485 kts 34°
2026-05-06 00:08 39.35572 2.19603 25884 ft 488 kts 34°
2026-05-06 00:09 39.38275 2.22286 26183 ft 492 kts 34°
2026-05-06 00:09 39.40998 2.24987 26478 ft 494 kts 34°
2026-05-06 00:09 39.43732 2.27702 26784 ft 497 kts 34°
2026-05-06 00:09 39.46475 2.30432 27058 ft 499 kts 34°
2026-05-06 00:10 39.49230 2.33180 27366 ft 501 kts 34°
2026-05-06 00:10 39.51997 2.35943 27658 ft 504 kts 34°
2026-05-06 00:10 39.54780 2.38725 27938 ft 506 kts 34°
2026-05-06 00:10 39.57571 2.41518 28202 ft 509 kts 34°
2026-05-06 00:11 39.60379 2.44330 28472 ft 511 kts 34°
2026-05-06 00:11 39.63201 2.47154 28705 ft 514 kts 34°
2026-05-06 00:11 39.66036 2.49996 28952 ft 516 kts 34°
2026-05-06 00:11 39.68880 2.52854 29245 ft 518 kts 34°
2026-05-06 00:12 39.71734 2.55729 29509 ft 520 kts 34°
2026-05-06 00:12 39.74592 2.58610 29869 ft 519 kts 34°
2026-05-06 00:12 39.77444 2.61491 30200 ft 519 kts 34°
2026-05-06 00:12 39.80296 2.64372 30488 ft 521 kts 33°
2026-05-06 00:13 39.83160 2.67264 30727 ft 522 kts 33°
2026-05-06 00:13 39.86030 2.70162 31032 ft 522 kts 34°
2026-05-06 00:13 39.88898 2.73063 31329 ft 522 kts 34°
2026-05-06 00:13 39.91766 2.75964 31644 ft 522 kts 34°
2026-05-06 00:14 39.94634 2.78868 31961 ft 522 kts 34°
2026-05-06 00:14 39.97498 2.81771 32276 ft 522 kts 34°
2026-05-06 00:14 40.00362 2.84677 32617 ft 522 kts 34°
2026-05-06 00:14 40.03222 2.87586 32933 ft 522 kts 34°
2026-05-06 00:15 40.06081 2.90497 33246 ft 522 kts 34°
2026-05-06 00:15 40.08941 2.93415 33556 ft 521 kts 34°
2026-05-06 00:15 40.11796 2.96336 33869 ft 521 kts 34°
2026-05-06 00:15 40.14648 2.99262 34149 ft 521 kts 34°
2026-05-06 00:16 40.17495 3.02183 34442 ft 519 kts 34°
2026-05-06 00:16 40.20336 3.05093 34750 ft 518 kts 34°
2026-05-06 00:16 40.23165 3.07986 35079 ft 516 kts 34°
2026-05-06 00:16 40.25990 3.10879 35367 ft 514 kts 34°
2026-05-06 00:17 40.28799 3.13758 35660 ft 513 kts 34°
2026-05-06 00:17 40.31606 3.16640 35887 ft 512 kts 34°
2026-05-06 00:17 40.34396 3.19513 35939 ft 509 kts 34°
2026-05-06 00:18 40.39955 3.25249 35930 ft 507 kts 34°
2026-05-06 00:18 40.45504 3.30980 35924 ft 508 kts 34°
2026-05-06 00:19 40.51051 3.36725 35930 ft 508 kts 34°
2026-05-06 00:19 40.56593 3.42492 35928 ft 508 kts 34°
2026-05-06 00:20 40.62141 3.48272 35928 ft 508 kts 34°
2026-05-06 00:20 40.67687 3.54048 35928 ft 508 kts 34°
2026-05-06 00:21 40.73234 3.59822 35928 ft 508 kts 34°
2026-05-06 00:21 40.78738 3.65580 35927 ft 508 kts 35°
2026-05-06 00:22 40.84309 3.71432 35927 ft 508 kts 35°
2026-05-06 00:22 40.89840 3.77253 35942 ft 508 kts 35°
2026-05-06 00:23 40.95369 3.83087 35909 ft 508 kts 35°
2026-05-06 00:23 41.00892 3.88929 35917 ft 508 kts 35°
2026-05-06 00:24 41.05485 3.93785 35922 ft 508 kts 35°
2026-05-06 00:24 41.11007 3.99637 35944 ft 509 kts 35°
2026-05-06 00:25 41.16529 4.05508 35935 ft 509 kts 35°
2026-05-06 00:25 41.22052 4.11402 35928 ft 509 kts 36°
2026-05-06 00:26 41.27565 4.17305 35950 ft 509 kts 36°
2026-05-06 00:26 41.33087 4.23208 35909 ft 509 kts 36°
2026-05-06 00:27 41.38611 4.29118 35908 ft 510 kts 36°
2026-05-06 00:27 41.44133 4.35043 35904 ft 510 kts 36°
2026-05-06 00:28 41.49651 4.40990 35945 ft 510 kts 36°
2026-05-06 00:28 41.55156 4.46947 35921 ft 509 kts 36°
2026-05-06 00:29 41.60657 4.52909 35922 ft 509 kts 36°
2026-05-06 00:29 41.66156 4.58873 35887 ft 509 kts 36°
2026-05-06 00:30 41.71679 4.64803 35917 ft 508 kts 32°
2026-05-06 00:30 41.77796 4.69338 35914 ft 502 kts 22°
2026-05-06 00:31 41.84049 4.73512 35903 ft 502 kts 22°
2026-05-06 00:31 41.90290 4.77728 35922 ft 502 kts 22°
2026-05-06 00:32 41.96539 4.81936 35912 ft 502 kts 22°
2026-05-06 00:32 42.02796 4.86129 35910 ft 502 kts 22°
2026-05-06 00:33 42.09053 4.90311 35906 ft 502 kts 22°
2026-05-06 00:33 42.15306 4.94513 35926 ft 502 kts 22°
2026-05-06 00:34 42.21553 4.98737 35882 ft 503 kts 23°
2026-05-06 00:34 42.27810 5.02975 35873 ft 503 kts 23°
2026-05-06 00:35 42.34071 5.07219 35893 ft 503 kts 23°
2026-05-06 00:35 42.40326 5.11469 35891 ft 503 kts 23°
2026-05-06 00:36 42.46583 5.15745 35891 ft 503 kts 23°
2026-05-06 00:36 42.52794 5.19993 35908 ft 503 kts 23°
2026-05-06 00:37 42.59082 5.24307 35900 ft 503 kts 23°
2026-05-06 00:37 42.65327 5.28599 35893 ft 503 kts 23°
2026-05-06 00:38 42.71526 5.32862 35890 ft 503 kts 23°
2026-05-06 00:38 42.77762 5.37168 35848 ft 503 kts 24°
2026-05-06 00:39 42.84001 5.41487 35854 ft 503 kts 24°
2026-05-06 00:39 42.90247 5.45812 35884 ft 503 kts 24°
2026-05-06 00:40 42.96487 5.50149 35884 ft 503 kts 24°
2026-05-06 00:40 43.02722 5.54500 35880 ft 503 kts 24°
2026-05-06 00:41 43.08954 5.58850 35877 ft 503 kts 24°
2026-05-06 00:41 43.15186 5.63208 35898 ft 503 kts 24°
2026-05-06 00:42 43.21414 5.67570 35884 ft 503 kts 24°
2026-05-06 00:42 43.27642 5.71948 35851 ft 503 kts 24°
2026-05-06 00:43 43.33870 5.76340 35872 ft 504 kts 24°
2026-05-06 00:43 43.40103 5.80745 35861 ft 504 kts 24°
2026-05-06 00:44 43.46343 5.85163 35861 ft 504 kts 24°
2026-05-06 00:44 43.52566 5.89650 35880 ft 506 kts 25°
2026-05-06 00:45 43.58765 5.94242 35868 ft 506 kts 25°
2026-05-06 00:45 43.64969 5.98855 35858 ft 507 kts 25°
2026-05-06 00:46 43.71186 6.03459 35875 ft 507 kts 25°
2026-05-06 00:46 43.77419 6.08050 35871 ft 508 kts 25°
2026-05-06 00:47 43.83719 6.12475 35853 ft 508 kts 22°
2026-05-06 00:47 43.90092 6.16722 35879 ft 508 kts 22°
2026-05-06 00:48 43.96464 6.20988 35873 ft 509 kts 22°
2026-05-06 00:48 44.02827 6.25329 35878 ft 510 kts 23°
2026-05-06 00:49 44.09180 6.29710 35903 ft 510 kts 24°
2026-05-06 00:49 44.15527 6.34091 35893 ft 509 kts 24°
2026-05-06 00:50 44.21871 6.38469 35886 ft 509 kts 24°
2026-05-06 00:50 44.28210 6.42857 35910 ft 508 kts 24°
2026-05-06 00:51 44.34538 6.47236 35876 ft 507 kts 24°
2026-05-06 00:51 44.40855 6.51618 35879 ft 507 kts 23°
2026-05-06 00:52 44.47171 6.56018 35916 ft 506 kts 24°
2026-05-06 00:52 44.53469 6.60415 35922 ft 505 kts 24°
2026-05-06 00:53 44.59758 6.64812 35924 ft 505 kts 24°
2026-05-06 00:53 44.66035 6.69213 35923 ft 505 kts 24°
2026-05-06 00:54 44.72314 6.73628 35927 ft 504 kts 24°
2026-05-06 00:54 44.78745 6.77437 35924 ft 499 kts 11°
2026-05-06 00:55 44.85519 6.78678 35932 ft 486 kts 354°
2026-05-06 00:55 44.92258 6.78238 35933 ft 485 kts 352°
2026-05-06 00:56 44.99002 6.77792 35933 ft 485 kts 352°
2026-05-06 00:56 45.05729 6.77360 35759 ft 484 kts 352°
2026-05-06 00:56 45.09093 6.77147 35508 ft 484 kts 352°
2026-05-06 00:57 45.12456 6.76931 35255 ft 485 kts 352°
2026-05-06 00:57 45.15844 6.76704 34475 ft 490 kts 351°
2026-05-06 00:57 45.19281 6.76468 33487 ft 499 kts 351°
2026-05-06 00:57 45.22770 6.76226 32437 ft 505 kts 352°
2026-05-06 00:58 45.26309 6.75983 31405 ft 511 kts 353°
2026-05-06 00:58 45.29876 6.75743 30451 ft 516 kts 353°
2026-05-06 00:58 45.33432 6.75407 29911 ft 507 kts 348°
2026-05-06 00:58 45.36882 6.74555 29212 ft 501 kts 344°
2026-05-06 00:59 45.40288 6.73633 28594 ft 497 kts 345°
2026-05-06 00:59 45.43671 6.72707 27985 ft 493 kts 345°
2026-05-06 00:59 45.47016 6.71786 27374 ft 488 kts 345°
2026-05-06 00:59 45.50334 6.70875 26774 ft 484 kts 345°
2026-05-06 01:00 45.53628 6.69976 26164 ft 480 kts 345°
2026-05-06 01:00 45.56895 6.69105 25584 ft 475 kts 346°
2026-05-06 01:00 45.60137 6.68265 25000 ft 472 kts 346°
2026-05-06 01:00 45.63349 6.67447 24458 ft 467 kts 347°
2026-05-06 01:01 45.66526 6.66639 23985 ft 461 kts 347°
2026-05-06 01:01 45.69673 6.65837 23479 ft 455 kts 347°
2026-05-06 01:01 45.72762 6.65044 22921 ft 449 kts 347°
2026-05-06 01:01 45.75774 6.64264 22250 ft 427 kts 346°
2026-05-06 01:02 45.78667 6.63497 21822 ft 420 kts 346°
2026-05-06 01:02 45.81518 6.62724 21373 ft 414 kts 346°
2026-05-06 01:02 45.84325 6.61952 20938 ft 407 kts 346°
2026-05-06 01:02 45.87089 6.61189 20505 ft 402 kts 346°
2026-05-06 01:03 45.89820 6.60439 20068 ft 397 kts 346°
2026-05-06 01:03 45.92517 6.59702 19632 ft 392 kts 346°
2026-05-06 01:03 45.95185 6.58977 19190 ft 389 kts 347°
2026-05-06 01:03 45.97836 6.58260 18412 ft 386 kts 346°
2026-05-06 01:04 46.00459 6.57516 17299 ft 381 kts 343°
2026-05-06 01:04 46.02925 6.56252 16251 ft 372 kts 331°
2026-05-06 01:04 46.04441 6.55040 15572 ft 366 kts 324°
2026-05-06 01:04 46.06994 6.51942 14730 ft 360 kts 309°
2026-05-06 01:05 46.08066 6.50080 14436 ft 356 kts 303°
2026-05-06 01:05 46.09855 6.46333 13872 ft 352 kts 301°
2026-05-06 01:05 46.11233 6.43422 13434 ft 351 kts 301°
2026-05-06 01:05 46.12603 6.40527 12917 ft 348 kts 301°
2026-05-06 01:06 46.13946 6.37686 12425 ft 346 kts 302°
2026-05-06 01:06 46.15283 6.34853 12222 ft 336 kts 301°
2026-05-06 01:06 46.16698 6.32296 12044 ft 316 kts 316°
2026-05-06 01:06 46.18545 6.30659 11794 ft 312 kts 339°
2026-05-06 01:07 46.20674 6.30099 11258 ft 306 kts
2026-05-06 01:07 46.22743 6.30712 10507 ft 304 kts 24°
2026-05-06 01:07 46.24472 6.32330 9769 ft 300 kts 46°
2026-05-06 01:07 46.25935 6.34483 9033 ft 302 kts 47°
2026-05-06 01:08 46.27410 6.36672 8566 ft 297 kts 47°
2026-05-06 01:08 46.28831 6.38772 7803 ft 295 kts 47°
2026-05-06 01:08 46.30286 6.40915 7174 ft 296 kts 47°
2026-05-06 01:08 46.31691 6.42986 7003 ft 289 kts 47°
2026-05-06 01:09 46.33090 6.45056 6970 ft 287 kts 46°
2026-05-06 01:09 46.34506 6.47155 6973 ft 285 kts 47°
2026-05-06 01:09 46.35850 6.49140 6969 ft 268 kts 47°
2026-05-06 01:09 46.37120 6.51014 6972 ft 257 kts 47°
2026-05-06 01:10 46.37944 6.52242 6975 ft 256 kts 47°
2026-05-06 01:10 46.39604 6.54735 6976 ft 258 kts 47°
2026-05-06 01:10 46.40462 6.55931 6976 ft 257 kts 37°
2026-05-06 01:10 46.42011 6.57036 6979 ft 246 kts 12°
2026-05-06 01:11 46.43688 6.57124 6974 ft 241 kts 347°
2026-05-06 01:11 46.45214 6.56242 6975 ft 235 kts 322°
2026-05-06 01:11 46.46346 6.54599 6978 ft 229 kts 298°
2026-05-06 01:11 46.46931 6.52504 6978 ft 223 kts 276°
2026-05-06 01:12 46.46977 6.50287 6981 ft 220 kts 264°
2026-05-06 01:12 46.46927 6.48073 6976 ft 220 kts 264°
2026-05-06 01:12 46.46670 6.45908 6975 ft 217 kts 249°
2026-05-06 01:12 46.46014 6.43970 6992 ft 211 kts 232°
2026-05-06 01:13 46.45127 6.42434 6941 ft 188 kts 225°
2026-05-06 01:13 46.44257 6.41114 6755 ft 175 kts 224°
2026-05-06 01:13 46.43431 6.39884 6546 ft 166 kts 225°
2026-05-06 01:13 46.42642 6.38712 6357 ft 159 kts 224°
2026-05-06 01:14 46.41143 6.36487 5936 ft 151 kts 224°
2026-05-06 01:14 46.40409 6.35399 5735 ft 151 kts 225°
2026-05-06 01:14 46.39677 6.34314 5515 ft 150 kts 224°
2026-05-06 01:15 46.38948 6.33234 5320 ft 152 kts 224°
2026-05-06 01:15 46.38202 6.32130 5117 ft 154 kts 225°
2026-05-06 01:15 46.37454 6.31022 4924 ft 154 kts 225°
2026-05-06 01:15 46.36706 6.29915 4706 ft 154 kts 225°
2026-05-06 01:16 46.35956 6.28805 4501 ft 154 kts 225°
2026-05-06 01:16 46.35206 6.27696 4289 ft 155 kts 225°
2026-05-06 01:16 46.34453 6.26584 4073 ft 155 kts 225°
2026-05-06 01:16 46.33699 6.25470 3876 ft 154 kts 225°
2026-05-06 01:17 46.32952 6.24366 3681 ft 149 kts 225°
2026-05-06 01:17 46.32240 6.23315 3470 ft 145 kts 225°
2026-05-06 01:17 46.31550 6.22297 3275 ft 143 kts 225°
2026-05-06 01:17 46.30854 6.21271 3096 ft 142 kts 226°
2026-05-06 01:18 46.30163 6.20252 2892 ft 142 kts 225°
2026-05-06 01:18 46.29471 6.19235 2699 ft 143 kts 226°
2026-05-06 01:18 46.28765 6.18199 2461 ft 146 kts 226°
2026-05-06 01:18 46.28050 6.17153 2269 ft 147 kts 226°
2026-05-06 01:19 46.27319 6.16099 2090 ft 149 kts 226°
2026-05-06 01:19 46.26597 6.15032 1885 ft 149 kts 227°
2026-05-06 01:19 46.25877 6.13958 1683 ft 148 kts 226°
2026-05-06 01:19 46.25165 6.12902 1474 ft 146 kts 226°
2026-05-06 01:20 46.24461 6.11871 1375 ft 137 kts 226°
2026-05-06 01:20 46.23880 6.11003 1378 ft 97 kts 225°
2026-05-06 01:20 46.23528 6.10487 1384 ft 53 kts 225°
2026-05-06 01:20 46.23326 6.10204 1405 ft 24 kts 214°
2026-05-06 01:21 46.23191 6.10112 1405 ft 15 kts 195°
2026-05-06 01:21 46.23099 6.10104 1398 ft 13 kts 148°
2026-05-06 01:21 46.23026 6.10084 1396 ft 12 kts 224°
2026-05-06 01:21 46.22969 6.10002 1403 ft 11 kts 225°
2026-05-06 01:22 46.22914 6.09918 1403 ft 13 kts 226°
2026-05-06 01:22 46.22864 6.09856 1399 ft 5 kts 187°
2026-05-06 01:22 46.22862 6.09902 1397 ft 6 kts 44°
2026-05-06 01:22 46.22903 6.09936 1400 ft 7 kts 26°
2026-05-06 01:23 46.22943 6.09967 1404 ft 7 kts 35°
2026-05-06 01:23 46.22991 6.10033 1403 ft 11 kts 45°
2026-05-06 01:23 46.23043 6.10109 1394 ft 10 kts 46°
2026-05-06 01:23 46.23091 6.10181 1397 ft 10 kts 46°
2026-05-06 01:24 46.23136 6.10252 1396 ft 9 kts 53°
2026-05-06 01:24 46.23168 6.10324 1395 ft 7 kts 97°
2026-05-06 01:24 46.23146 6.10381 1397 ft 6 kts 136°
2026-05-06 01:24 46.23128 6.10426 1402 ft 5 kts 98°
2026-05-06 01:25 46.23127 6.10445 1398 ft 1 kts 93°
2026-05-06 01:25 46.23127 6.10448 1397 ft 2 kts 93°
2026-05-06 01:25 46.23125 6.10482 1399 ft 3 kts 82°
2026-05-06 01:25 46.23126 6.10507 1400 ft 2 kts 90°
2026-05-06 01:26 46.23126 6.10516 1400 ft 0 kts 90°